#timestamp,LO_Frequency,Hit,StdDev 
1690135215.4,286046998.6,N
1690135235.2,286046998.7,N
1690135255.1,286047001.1,N
1690135256.0,286047001.1,N
1690135275.8,286047000.0,N
1690135295.6,286047000.7,N
1690135315.5,286047001.0,N
1690135335.3,286047001.0,N
1690135355.1,286047001.1,N
1690135375.9,286047001.1,N
1690135395.7,286046998.9,N
1690135415.6,286047001.1,N
1690135435.4,286047000.0,N
1690135455.2,286047000.5,N
1690135475.1,286047000.9,N
1690135476.0,286047000.9,N
1690135495.8,286047000.5,N
1690135515.7,286047000.7,N
1690135535.5,286046998.1,N
1690135555.3,286047001.1,N
1690135575.2,286047000.7,N
1690135595.0,286047001.2,N
1690135595.9,286047001.2,N
1690135615.7,286047000.5,N
1690135635.6,286046998.2,N
1690135655.4,286047001.2,N
1690135675.3,286046998.2,N
1690135695.1,286046998.1,N
1690135696.0,286046998.1,N
1690135715.8,286047000.6,N
1690135735.7,286047000.7,N
1690135755.5,286047001.0,N
1690135775.3,286047000.4,N
1690135795.2,286046999.9,N
1690135815.0,286046999.7,N
1690135815.9,286046999.7,N
1690135835.8,286046999.9,N
1690135855.6,286047001.0,N
1690135875.4,286047000.5,N
1690135895.3,286047000.5,N
1690135915.1,286047000.9,N
1690135935.8,286046998.1,N
1690135955.7,286046998.2,N
1690135975.5,286047001.1,N
1690135995.4,286047000.3,N
1690136015.2,286047000.3,N
1690136035.0,286046999.9,N
1690136035.9,286046999.9,N
1690136055.8,286046999.7,N
1690136075.6,286047000.5,N
1690136095.5,286047000.1,N
1690136115.3,286047002.8,N
1690136135.1,286047002.4,N
1690136155.9,286047002.5,N
1690136175.7,286047001.6,N
1690136195.5,286047002.0,N
1690136215.4,286047002.6,N
1690136235.2,286047001.9,N
1690136255.1,286046999.9,N
1690136256.0,286046999.9,N
1690136275.8,286047000.3,N
1690136295.6,286047001.1,N
1690136315.5,286047000.3,N
1690136335.3,286047000.1,N
1690136355.1,286047000.4,N
1690136375.9,286047000.3,N
1690136395.7,286047001.2,N
1690136415.6,286046998.4,N
1690136435.4,286046998.5,N
1690136455.2,286047001.1,N
1690136475.1,286046998.3,N
1690136476.0,286046998.3,N
1690136495.8,286046999.1,N
1690136515.6,286046998.8,N
1690136535.5,286046999.3,N
1690136555.3,286046999.1,N
1690136575.2,286046999.3,N
1690136595.9,286046999.1,N
1690136615.7,286046999.4,N
1690136635.6,286046999.4,N
1690136655.4,286046996.7,N
1690136675.2,286046999.3,N
1690136695.1,286046999.5,N
1690136696.0,286046999.5,N
1690136715.8,286046996.8,N
1690136735.7,286046999.1,N
1690136755.5,286046996.7,N
1690136775.3,286046996.9,N
1690136795.2,286046997.4,N
1690136815.0,286046997.3,N
1690136815.9,286046997.3,N
1690136835.8,286046997.2,N
1690136855.6,286046997.1,N
1690136875.4,286046997.2,N
1690136895.3,286046996.6,N
1690136915.1,286046997.0,N
1690136935.8,286046996.8,N
1690136955.7,286046997.0,N
1690136975.5,286046996.7,N
1690136995.4,286046996.6,N
1690137015.2,286046997.5,N
1690137035.0,286046997.5,N
1690137035.9,286046997.5,N
1690137055.8,286046995.1,Y
1690137075.6,286046997.0,P
1690137095.5,286046996.8,P
1690137115.3,286046997.6,P
1690137135.1,286046997.3,Y
1690137155.9,286047001.1,P
1690137175.7,286046998.2,N
1690137195.6,286046998.6,N
1690137215.4,286047001.2,N
1690137235.2,286047000.7,N
1690137255.1,286047000.8,N
1690137256.0,286047000.8,N
1690137275.8,286047001.0,N
1690137295.7,286047001.0,N
1690137315.5,286047001.0,N
1690137335.3,286047000.3,N
1690137355.2,286047000.7,N
1690137375.0,286046998.5,N
1690137375.9,286046998.5,N
1690137395.7,286046999.0,N
1690137415.6,286046998.2,N
1690137435.4,286046998.5,N
1690137455.3,286046999.1,N
1690137475.1,286046999.2,N
1690137476.0,286046999.2,N
1690137495.8,286046999.4,N
1690137515.7,286046999.4,N
1690137535.5,286046999.1,N
1690137555.3,286046999.6,N
1690137575.2,286046998.6,N
1690137595.0,286046998.6,N
1690137595.9,286046998.6,N
1690137615.8,286046999.6,N
1690137635.6,286046997.2,N
1690137655.4,286046996.6,N
1690137675.3,286046999.4,N
1690137695.1,286046999.0,N
1690137715.9,286046998.9,N
1690137735.7,286046996.9,N
1690137755.5,286046996.7,N
1690137775.4,286046999.6,N
1690137795.2,286046999.6,N
1690137815.0,286046999.5,N
1690137815.9,286046999.5,N
1690137835.8,286046996.5,Y
1690137855.6,286046998.9,P
1690137875.5,286046998.5,P
1690137895.3,286046998.3,P
1690137915.1,286046998.6,Y
1690137935.9,286047000.1,P
1690137955.7,286046999.9,N
1690137975.5,286047000.2,N
1690137995.4,286047000.4,N
1690138015.2,286046999.7,N
1690138035.1,286047000.8,N
1690138036.0,286047000.8,N
1690138055.8,286047000.9,N
1690138075.6,286047000.8,N
1690138095.5,286047000.4,N
1690138115.3,286047000.7,N
1690138135.1,286047001.0,N
1690138155.9,286046998.5,N
1690138175.7,286047001.1,N
1690138195.6,286046998.1,N
1690138215.4,286047000.7,N
1690138235.2,286047000.7,N
1690138255.1,286047000.6,N
1690138256.0,286047000.6,N
1690138275.8,286047000.7,N
1690138295.6,286047000.8,N
1690138315.5,286047000.7,N
1690138335.3,286047000.7,N
1690138355.2,286047001.0,N
1690138375.9,286047000.7,N
1690138395.7,286047000.8,N
1690138415.6,286046998.1,N
1690138435.4,286047001.0,N
1690138455.3,286047000.8,N
1690138475.1,286047000.8,N
1690138476.0,286047000.8,N
1690138495.8,286047001.2,N
1690138515.7,286047000.4,N
1690138535.5,286047001.1,N
1690138555.3,286046999.9,N
1690138575.2,286047000.4,N
1690138595.0,286047000.1,N
1690138595.9,286047000.1,N
1690138615.8,286047000.6,N
1690138635.6,286047000.3,N
1690138655.4,286047001.1,N
1690138675.3,286047001.1,N
1690138695.1,286047000.5,N
1690138715.8,286047001.2,N
1690138735.7,286047001.1,N
1690138755.5,286047000.4,N
1690138775.4,286047000.8,N
1690138795.2,286047000.9,N
